SCP
0 0 0 0 0 0 0 0 0 0 0 0 0 0 0 0 1 1 1 1 0 0 1 1 2 2 2 2 2 1 1 1 0 0 0 0 0 0 1 1 1 1 1 1
0 0 0 0 0 0 0 0 0 0 0 0 0 0 0 0 1 1 1 1 1 0 1 1 2 2 2 2 2 1 1 1 1 1 1 1 1 0 0 1 1 1 1 1
0 0 0 0 0 0 0 0 0 0 0 0 0 0 0 0 0 0 1 1 0 1 1 1 2 2 3 2 2 1 1 1 1 1 1 1 1 1 0 0 1 1 1 1
0 0 0 0 0 0 0 0 0 0 0 0 0 0 0 0 0 0 0 0 0 1 1 1 2 2 2 2 2 1 1 2 2 2 2 1 1 1 1 0 0 1 1 2
0 0 0 0 0 0 0 0 0 0 0 0 0 0 0 0 0 0 0 1 1 1 1 1 1 2 2 2 2 2 2 2 2 2 2 2 1 1 1 1 1 1 1 2
0 0 0 0 0 0 0 0 0 0 0 0 0 0 0 0 1 1 1 1 1 1 1 1 1 2 2 2 2 2 2 2 2 2 2 2 1 1 1 1 1 1 2 2
0 0 0 0 0 0 0 0 0 0 0 0 0 0 0 1 1 1 1 1 1 1 1 1 1 2 2 2 2 2 2 2 2 2 2 2 2 1 1 1 2 2 1 1
0 0 0 0 0 0 0 0 0 0 0 0 0 0 1 1 1 1 1 1 1 1 1 1 1 2 2 2 2 2 2 1 2 2 2 1 2 2 2 2 1 1 2 2
0 0 0 0 0 0 0 0 0 0 0 0 0 1 1 2 1 1 1 1 1 1 1 1 2 2 2 2 2 2 2 2 2 1 1 1 1 1 2 2 1 2 2 2
0 0 0 0 0 0 0 0 0 0 0 0 0 0 1 1 1 1 1 1 1 1 1 1 2 2 3 3 3 2 2 2 2 2 1 1 1 1 2 2 2 2 2 1
0 0 0 0 0 0 0 0 0 0 0 0 0 0 0 1 1 1 1 1 1 1 1 1 1 2 3 3 3 3 2 2 2 2 2 1 1 2 2 2 2 2 2 2
0 0 0 0 0 0 0 0 0 0 0 0 0 0 0 1 1 2 1 1 2 2 1 1 1 2 3 4 4 4 3 2 3 3 2 2 2 2 2 2 2 2 2 2
0 0 0 0 0 0 0 0 0 0 0 0 0 0 1 1 2 2 2 2 2 2 1 1 1 2 3 4 5 4 2 2 3 3 3 3 3 3 3 4 4 4 3 3
0 0 0 0 0 0 0 0 0 0 0 0 0 0 1 1 2 2 2 2 2 2 2 2 2 2 2 4 4 3 2 2 3 3 4 4 4 5 5 5 6 6 5 5
0 0 0 0 0 0 0 0 0 0 0 0 0 0 1 2 2 3 2 2 2 3 3 3 2 2 2 3 3 2 2 2 2 3 4 4 5 6 6 7 7 7 7 7
0 0 0 0 0 0 0 0 0 0 0 0 0 0 1 2 2 3 2 2 3 3 3 3 3 3 3 3 2 2 2 2 2 2 3 3 4 5 6 7 8 8 8 8
0 0 0 0 0 0 0 0 0 1 0 0 0 0 1 1 2 3 3 3 3 3 4 4 4 3 3 2 2 2 3 3 3 2 2 2 3 3 4 6 7 8 9 9
0 0 0 0 0 0 0 0 0 1 1 0 0 0 1 2 2 3 3 4 3 3 4 5 4 3 2 2 3 3 3 3 3 3 2 2 2 2 3 4 5 6 8 8
0 0 0 0 0 0 0 0 0 1 1 1 1 1 2 2 3 3 4 4 3 3 4 4 4 2 2 2 2 3 3 3 2 2 2 2 3 2 2 3 3 4 6 7
0 0 0 0 0 0 0 0 0 1 1 1 1 2 3 3 3 3 4 4 4 3 3 3 3 2 2 2 2 2 2 2 2 2 2 2 3 3 3 3 3 4 5 5
0 0 0 0 0 0 0 0 0 1 1 1 1 2 3 3 3 3 5 5 5 5 4 3 2 2 2 2 2 2 2 2 2 2 2 2 2 3 3 3 3 4 4 4
0 0 0 0 0 0 0 0 0 0 1 1 1 3 3 3 3 4 6 7 7 6 4 3 2 2 1 2 2 2 2 3 3 2 2 2 3 3 3 3 4 4 4 4
0 0 0 0 0 0 0 0 0 0 1 1 2 3 4 4 4 6 7 8 7 5 3 2 2 2 1 1 1 2 2 3 2 2 2 3 3 4 4 4 4 4 5 5
0 0 0 0 0 0 0 0 0 0 1 2 4 4 4 4 5 7 7 8 6 4 3 3 2 2 1 1 1 2 3 3 2 2 2 3 3 4 4 4 4 4 5 5
0 0 0 0 0 1 1 1 1 1 2 4 4 4 4 5 7 8 8 7 6 5 4 3 2 2 1 1 2 2 2 2 2 2 2 3 3 4 4 4 4 4 4 4
0 0 0 0 0 1 1 1 2 2 3 5 5 4 4 6 8 9 9 8 6 5 4 3 2 1 1 1 2 2 2 2 1 1 2 2 3 4 4 3 3 3 3 3
Wind_Speed
2 4 2 5 5 4 3 2 2 3 1 3 2 2 4 6 6 6 6 5 6 6 5 3 3 3 3 2 2 2 2 2 2 1 1 1 0 0 1 0 0 1 1 2
4 3 6 3 3 3 3 1 2 2 1 2 1 2 3 6 8 8 8 7 7 5 3 4 4 3 4 3 3 2 2 3 3 2 1 1 1 0 1 1 1 1 1 2
5 5 2 3 2 2 2 4 3 2 2 3 2 4 2 2 4 4 5 6 6 8 7 6 6 5 4 4 4 4 3 3 3 2 2 2 2 2 2 2 1 1 0 1
4 4 2 2 3 4 4 4 4 3 3 2 2 3 5 3 3 6 6 6 7 7 7 6 6 6 6 6 4 4 3 3 2 3 3 3 2 1 0 0 1 1 1 0
4 2 2 3 4 5 3 2 4 3 4 2 2 1 8 1 4 8 9 9 9 8 8 8 8 8 6 6 5 4 3 3 2 3 4 3 2 1 0 1 1 1 1 1
4 2 2 3 1 3 4 6 7 6 5 1 2 2 7 4 7 6 7 9 8 8 7 7 6 5 4 4 4 4 4 3 3 4 4 4 3 2 1 0 0 1 1 1
3 3 2 2 3 3 5 6 5 5 4 5 2 2 9 7 6 7 7 8 8 7 7 7 7 7 6 6 6 5 5 4 3 4 4 4 4 3 3 2 1 1 0 1
1 5 3 2 5 5 4 8 7 4 4 4 2 5 8 5 4 4 4 4 5 6 7 8 8 8 7 7 6 6 6 4 4 4 3 3 3 2 2 2 2 1 1 2
5 5 4 1 2 8 5 3 5 7 2 1 5 6 8 2 1 1 2 3 5 6 7 7 7 7 7 7 7 7 7 5 4 4 3 3 3 3 2 2 2 1 1 1
8 3 3 2 5 5 5 8 6 6 5 2 5 4 5 5 4 3 3 4 4 4 5 6 6 7 7 7 6 6 6 6 4 4 3 3 3 3 3 2 2 2 2 1
5 5 3 2 2 4 4 4 5 4 5 6 3 8 7 8 7 6 6 5 5 5 6 6 6 5 5 5 6 6 5 4 4 4 3 2 2 2 2 2 3 3 2 2
3 6 2 4 3 2 4 6 8 5 4 4 4 10 6 5 5 5 6 5 5 5 4 5 5 5 5 6 6 6 5 5 4 4 3 3 2 2 2 2 3 3 3 3
5 6 2 5 5 2 1 3 4 5 6 5 5 9 4 1 1 3 4 5 4 4 3 4 4 5 5 5 5 5 5 5 5 4 4 3 2 2 3 3 3 2 2 3
6 5 7 9 7 4 2 2 4 6 5 5 8 8 6 3 3 3 4 4 4 4 5 5 4 4 4 4 5 5 5 5 5 4 4 4 4 4 3 3 2 2 2 3
5 3 2 4 3 3 3 4 5 5 7 8 8 8 10 7 7 5 5 4 4 4 5 5 5 5 5 5 4 4 4 4 5 5 5 5 4 3 3 3 3 3 3 3
4 4 2 1 1 2 2 3 4 4 3 4 4 7 6 3 2 3 4 6 6 5 6 6 5 6 6 6 6 5 5 4 4 4 4 4 3 2 2 3 2 2 2 2
2 4 3 3 2 1 4 5 5 4 3 4 6 8 2 1 4 6 6 7 7 6 6 6 6 6 6 6 6 6 5 5 4 4 3 3 3 3 3 3 2 3 3 2
5 5 4 2 1 5 9 3 4 5 4 4 5 5 3 4 3 2 4 6 6 5 5 5 5 5 4 4 5 5 4 4 4 4 3 3 2 2 2 2 3 3 3 3
5 7 5 4 3 5 6 2 3 4 5 3 3 2 0 1 2 2 0 3 5 5 5 5 5 4 4 5 5 5 4 4 4 4 4 3 3 3 2 3 4 3 3 3
4 4 6 5 4 7 7 3 1 3 4 3 3 3 1 3 2 4 2 2 2 2 3 3 3 4 4 3 5 6 5 4 4 4 4 3 3 3 3 4 4 3 3 4
3 3 3 4 4 7 6 3 1 4 7 3 3 3 4 4 5 4 2 2 3 3 3 3 4 4 3 4 5 5 4 5 5 3 3 3 3 3 3 3 3 3 3 3
5 4 4 4 4 7 3 1 4 6 3 2 2 3 3 3 1 1 3 3 3 3 3 3 3 2 1 3 4 4 5 5 3 3 3 3 3 3 2 2 2 2 2 3
4 6 6 7 7 5 2 3 3 3 2 2 2 2 3 2 2 2 2 3 3 3 3 2 2 2 1 2 4 4 4 3 3 2 3 3 3 2 2 2 2 2 2 3
2 1 2 2 5 4 3 2 2 2 3 3 2 2 3 2 2 2 2 2 2 2 2 2 2 2 1 1 2 3 3 3 4 3 3 2 2 2 2 2 2 2 3 3
3 1 1 3 4 4 3 3 2 3 2 1 1 1 3 3 2 2 2 2 1 1 1 2 2 2 2 1 1 1 1 3 3 3 3 2 2 2 2 2 3 4 4 5
4 5 5 6 6 4 6 5 3 3 3 2 2 1 1 3 3 2 2 1 2 2 2 2 2 2 2 1 1 1 1 2 3 2 2 2 2 2 2 2 3 4 5 7
Wind_Direction
62 78 196 218 198 184 164 154 253 269 224 148 203 232 204 178 181 192 198 203 209 218 219 202 194 176 158 153 157 149 139 146 125 104 106 102 41 352 11 39 116 117 118 120
45 264 232 191 171 153 150 164 265 316 30 123 143 273 225 190 200 200 200 206 211 215 211 202 193 184 178 182 182 166 177 174 164 158 144 132 112 86 64 30 53 72 116 138
192 239 192 154 172 168 219 190 203 195 42 53 65 337 271 224 201 203 207 208 210 209 208 205 199 198 190 192 193 190 188 180 177 156 107 79 59 41 36 27 24 22 83 127
228 249 175 157 194 168 243 216 172 135 93 340 66 299 289 240 223 219 217 210 215 217 207 201 199 200 200 201 190 185 181 174 171 150 137 135 133 154 259 311 350 16 37 82
241 200 172 210 220 175 212 97 114 105 110 39 19 146 289 267 238 240 224 215 214 212 203 201 201 202 199 188 183 182 171 169 162 155 156 149 159 187 146 62 31 17 18 30
249 245 199 199 166 141 122 70 55 50 67 7 259 170 278 237 223 234 222 216 210 204 196 195 192 184 185 176 174 171 167 176 166 161 162 164 171 174 148 120 48 354 1 6
316 313 276 152 88 48 90 87 40 9 15 260 262 199 251 253 233 218 216 216 206 193 187 185 179 179 182 178 179 175 173 180 172 167 174 179 182 179 182 195 196 192 301 307
193 290 261 192 169 169 161 135 152 187 217 274 306 237 258 271 257 222 205 200 184 185 188 190 189 186 186 183 179 176 177 182 176 176 183 182 179 180 193 199 197 205 228 250
176 250 294 253 172 137 133 149 155 130 142 298 287 287 301 312 314 195 172 166 182 188 187 191 187 183 186 183 181 179 175 175 177 181 178 182 183 181 191 195 199 215 239 247
157 214 286 306 71 42 123 137 102 116 144 239 292 280 255 260 246 224 193 192 197 186 183 184 184 184 183 179 172 167 171 177 177 176 185 187 191 195 195 186 196 209 230 250
141 161 291 19 152 174 106 99 105 114 149 158 237 268 232 221 216 208 213 204 198 192 189 186 183 180 169 159 159 162 167 167 167 175 182 182 185 191 189 198 213 217 226 228
145 129 223 262 269 186 159 164 149 153 202 173 179 263 274 223 212 201 206 200 194 188 187 180 169 159 158 162 165 168 171 171 176 175 171 182 186 188 201 221 230 225 229 232
131 116 93 337 335 358 121 155 150 129 123 156 176 261 302 359 195 201 204 198 181 167 158 152 155 164 171 172 171 173 177 179 174 166 167 180 196 206 220 229 234 235 241 246
111 117 162 194 214 205 215 178 154 134 153 194 217 246 284 268 237 224 207 197 178 168 161 155 159 167 168 171 175 177 183 178 170 165 172 189 210 219 228 233 234 235 238 247
96 129 193 225 224 190 207 212 184 188 191 192 226 227 245 232 219 210 189 170 162 169 170 167 168 170 164 165 170 172 180 180 173 169 184 203 213 218 223 232 241 244 248 251
71 124 134 268 263 228 240 236 206 210 199 223 249 258 254 242 173 172 175 170 172 183 184 177 177 177 176 178 177 173 177 180 172 181 200 203 200 210 220 233 240 241 248 256
99 119 116 244 289 21 262 231 201 204 205 189 222 247 283 205 196 196 191 186 186 189 182 180 182 188 188 184 175 176 180 168 168 187 200 200 197 206 222 231 233 240 244 247
147 128 131 156 91 222 241 237 197 199 226 222 245 261 225 212 216 205 179 180 188 184 181 186 184 185 182 175 167 165 163 162 171 185 197 201 199 218 233 232 238 244 243 245
159 142 131 138 188 261 288 260 182 195 253 233 234 263 292 68 61 358 178 178 192 191 189 187 183 177 166 167 167 159 165 170 177 194 205 213 208 215 231 244 249 243 236 246
75 107 125 139 168 222 244 269 276 129 266 268 192 198 165 98 130 251 240 174 171 164 169 169 157 149 161 172 157 154 169 178 200 209 213 215 213 211 222 237 247 247 237 244
74 68 132 163 200 251 258 293 98 165 240 265 190 191 167 188 214 225 186 158 155 147 149 146 145 155 173 166 152 163 180 204 216 209 203 209 216 218 222 233 242 249 251 257
168 151 174 157 185 245 274 95 163 219 260 267 210 204 192 204 208 170 156 141 126 115 111 120 134 142 158 162 154 174 206 213 204 188 189 214 229 234 231 232 248 250 245 256
194 188 183 187 211 244 247 212 231 203 223 257 234 232 182 174 174 154 141 136 131 131 129 124 134 134 176 183 171 185 218 191 177 181 201 220 237 242 234 225 239 255 248 254
271 148 145 254 271 279 280 282 279 251 238 253 233 208 166 172 176 144 135 136 130 128 133 116 118 142 187 220 199 198 197 178 172 190 213 222 229 253 258 241 232 239 247 251
232 173 160 262 281 312 302 287 291 305 303 281 240 186 162 145 156 158 153 157 157 136 143 138 155 175 195 187 198 214 180 168 182 211 222 230 229 234 251 257 247 243 244 236
210 186 183 224 228 218 261 281 288 288 279 253 220 192 160 158 166 158 165 168 149 151 157 148 167 179 190 173 193 255 210 180 186 224 237 235 238 244 247 259 282 268 256 256